Location: Franzen
(48.6167°N, 15.3833°E)
Time: 09:57:17
(UTC+00:00)

Resurs 01 Rocket - Pass Details

Date: 22 April 2021
Orbit: 634 x 644 km, 97.9° (Epoch: 16 May)

Event Time Altitude Azimuth Distance (km) Brightness Sun altitude
Exits shadow 19:08:36 12° 151° (SSE) 1,926 3.5 -10.9°
Maximum altitude 19:12:42 61° 72° (ENE) 738 1.7 -11.4°
Drops below altitude 10° 19:17:07 10° 353° (N) 2,054 4.9 -12.0°
Sets 19:19:21 0° 350° (N) 2,968 5.8 -12.3°
